PLEIADES NEO 3 (48268 NORAD) Tracking and Keplerian Element Data

This shows tracking and keplerian element data for the satellite.

Feedback or suggestion? Click here.




ElementValue
Catalog48268
NamePLEIADES NEO 3
Epoch Orbit806
Epoch Day173.57781731
Epoch Year2021
RAAN248.4727
Inclination97.8934
Eccentricity0.000175
Argument of Perigee111.9989
Mean Anonmoly248.1423
Mean Motion14.81676057
Decay Rate9.43E-06
L11 48268U 21034A 21173.57781731 .00000943 00000-0 12648-3 0 9991
L22 48268 97.8934 248.4727 0001750 111.9989 248.1423 14.81676057 8068

Live tracking and technical data element details for PLEIADES NEO 3 (NORAD 48268). PLEIADES NEO 3 can be tracked NOW for your location showing map with azimuth and elevation plus other details from your city location.

Track the satellite on the map from your city or location and see movement details for azimuth, elevation, latitude, longitude, range, height, and movement on the map or in text.







IsCatalogInMostPopularTable: catalog: 48268, numindb: 17
Update: records affected: 1



GetName: 48268 PLEIADES NEO 3

Hit Count: updated at: Thu, 24 Jun 2021 03:52:17 GMT